Location: Newark
(44.5208°N, 2.4294°E)
Time: 14:23:59
(UTC+00:00)

Envisat - Visible Passes

Search period start: 22 September 2019 00:00
Search period end: 02 October 2019 00:00
Orbit: 764 x 766 km, 98.1° (Epoch: 22 September)

Date Brightness Start Highest point End Pass type
(mag) Time Alt. Az. Time Alt. Az. Time Alt. Az.
22 Sep 3.5 18:10:19 10° S 18:15:21 66° WSW 18:20:26 10° NNW visible
23 Sep 5.9 19:14:35 10° SW 19:18:02 18° W 19:21:30 10° NW visible
24 Sep 4.6 18:36:15 10° SSW 18:40:57 38° W 18:45:43 10° NNW visible
25 Sep 6.5 19:43:38 10° W 19:43:53 10° W 19:44:07 10° W visible
26 Sep 5.5 19:02:42 10° SW 19:06:40 23° W 19:10:39 10° NW visible
27 Sep 4.1 18:24:45 10° S 18:29:39 48° W 18:34:35 10° NNW visible
28 Sep 6.1 19:30:07 10° WSW 19:32:28 13° W 19:34:49 10° WNW visible
29 Sep 5.2 18:50:58 10° SSW 18:55:18 28° W 18:59:41 10° NW visible
30 Sep 3.7 18:13:20 10° S 18:18:21 61° W 18:23:24 10° NNW visible
01 Oct 5.9 19:17:52 10° SW 19:21:04 17° W 19:24:17 10° NW visible
